Location: Go�ngahuizen
(53.0821°N, 5.8849°E)
Time: 05:38:30
(UTC+00:00)

Resurs 01 Rocket - Pass Details

Date: 09 April 2020
Orbit: 635 x 644 km, 98.0° (Epoch: 29 May)

Event Time Altitude Azimuth Distance (km) Brightness Sun altitude
Exits shadow 19:17:46 - 141° (SE) 2,241 3.9 -8.1°
Reaches altitude 10° 19:18:19 10° 139° (SE) 2,023 3.6 -8.1°
Maximum altitude 19:22:31 45° 67° (ENE) 871 2.0 -8.7°
Drops below altitude 10° 19:26:45 10° 355° (N) 2,042 4.7 -9.3°
Sets 19:29:01 0° 350° (N) 2,957 5.6 -9.6°
